Probability
0 0 0 0 0 0 0 0 0 0 0 0 0 0 0 0 0 0 0 0 0 0 0 0 0 0 0 0 0 0 0 0 0 0 0 0 0 0 0 0 0 0 0 0 0 0 0 0 0
0 0 0 0 0 0 0 0 0 0 0 0 0 0 0 0 0 0 0 0 0 0 0 0 0 0 0 0 0 0 0 0 0 0 0 0 0 0 0 0 0 0 0 0 0 0 0 0 0
0 0 0 0 0 0 0 0 0 0 0 0 0 0 0 0 0 0 0 0 0 0 0 0 0 0 0 0 0 0 0 0 0 0 0 0 0 0 0 0 0 0 0 0 0 0 0 0 0
0 0 0 0 0 0 0 0 0 0 0 0 0 0 0 0 0 0 0 0 0 0 0 0 0 0 0 0 0 0 0 0 0 0 0 0 0 0 0 0 0 0 0 0 0 0 0 0 0
0 0 0 0 0 0 0 0 0 0 0 0 0 0 0 0 0 0 0 0 0 0 0 0 0 0 0 0 0 0 0 0 0 0 0 0 0 0 0 0 0 0 0 0 0 0 0 0 0
0 0 0 0 0 0 0 0 0 0 0 0 0 0 0 0 0 0 0 0 0 0 0 0 0 0 0 0 0 0 0 0 0 0 0 0 0 0 0 0 0 0 0 0 0 0 0 0 0
0 0 0 0 0 0 0 0 0 0 0 0 0 0 0 0 0 0 0 0 0 0 0 0 0 0 0 0 0 0 0 0 0 0 0 0 0 0 0 0 0 0 0 0 0 0 0 0 0
0 0 0 0 0 0 0 0 0 0 0 0 0 0 0 0 0 0 0 0 0 0 0 0 0 0 0 0 0 0 0 0 0 0 0 0 0 0 0 0 0 0 0 0 0 0 0 0 0
0 0 0 0 0 0 0 0 0 0 0 0 0 0 0 0 0 0 0 0 0 0 0 0 0 0 0 0 0 0 0 0 0 0 0 0 0 0 0 0 0 0 0 0 0 0 0 0 0
0 0 0 0 0 0 0 0 0 0 0 0 0 0 0 0 0 0 0 0 0 0 0 0 0 0 0 0 0 0 0 0 0 0 0 0 0 0 0 0 0 0 0 0 0 0 0 0 0
0 0 0 0 0 0 0 0 0 0 0 0 0 0 0 0 0 0 0 0 0 0 0 0 0 0 0 0 0 0 0 0 0 0 0 0 0 0 0 0 0 0 0 0 0 0 0 0 0
0 0 0 0 0 0 0 0 0 0 0 0 0 0 0 0 0 0 0 0 0 0 0 0 0 0 0 0 0 0 0 0 0 0 0 0 0 0 0 0 0 0 0 0 0 0 0 0 0
0 0 0 0 0 0 0 0 0 0 0 0 0 0 0 0 0 0 0 0 0 0 0 0 0 0 0 0 0 0 0 0 0 0 0 0 0 0 0 0 0 0 0 0 0 0 0 0 0
0 0 0 0 0 0 0 0 0 0 0 0 0 0 0 0 0 0 0 0 0 0 0 0 0 0 0 0 0 0 0 0 0 0 0 0 0 0 0 0 0 0 0 0 0 0 0 0 0
0 0 0 0 0 0 0 0 0 0 0 0 0 0 0 0 0 0 0 0 0 0 0 0 0 0 0 0 0 0 0 0 0 0 0 0 0 0 0 0 0 0 0 0 0 0 0 0 0
0 0 0 0 0 0 0 0 0 0 0 0 0 0 0 0 0 0 0 0 0 0 0 0 0 0 0 0 0 0 0 0 0 0 0 0 0 0 0 0 0 0 0 0 0 0 0 0 0
0 0 0 0 0 0 0 0 0 0 0 0 0 0 0 0 0 0 0 0 0 0 0 0 0 0 0 0 0 0 0 0 0 0 0 0 0 0 0 0 0 0 0 0 0 0 0 0 0
0 0 0 0 0 0 0 0 0 0 0 0 0 0 0 0 0 0 0 0 0 0 0 0 0 0 0 0 0 0 0 0 0 0 0 0 0 0 0 0 0 0 0 0 0 0 0 0 0
0 0 0 0 0 0 0 0 0 0 0 0 0 0 0 0 0 0 0 0 0 0 0 0 0 0 0 0 0 0 0 0 0 0 0 0 0 0 0 0 0 0 0 0 0 0 0 0 0
0 0 0 0 0 0 0 0 0 0 0 0 0 0 0 0 0 0 0 0 0 0 0 0 0 0 0 0 0 0 0 0 0 0 0 0 0 0 0 0 0 0 0 0 0 0 0 0 0
0 0 0 0 0 0 0 0 0 0 0 0 0 0 0 0 0 0 0 0 0 0 0 0 0 0 0 0 0 0 0 0 0 0 0 0 0 0 0 0 0 0 0 0 0 0 0 0 0
0 0 0 0 0 0 0 0 0 0 0 0 0 0 0 0 0 0 0 0 0 0 0 0 0 0 0 0 0 0 0 0 0 0 0 0 0 0 0 0 0 0 0 0 0 0 0 0 0
0 0 0 0 0 0 0 0 0 0 0 0 0 0 0 0 0 0 0 0 0 0 0 0 0 0 0 0 0 0 0 0 0 0 0 0 0 0 0 0 0 0 0 0 0 0 0 0 0
0 0 0 0 0 0 0 0 0 0 0 0 0 0 0 0 0 0 0 0 0 0 0 0 0 0 0 0 0 0 0 0 0 0 0 0 0 0 0 0 0 0 0 0 0 0 0 0 0
0 0 0 0 0 0 0 0 0 0 0 0 0 0 0 0 0 0 0 0 0 0 0 0 0 0 0 0 0 0 0 0 0 0 0 0 0 0 0 0 0 0 0 0 0 0 0 0 0
0 0 0 0 0 0 0 0 0 0 0 0 0 0 0 0 0 0 0 0 0 0 0 0 0 0 0 0 0 0 0 0 0 0 0 0 0 0 0 0 0 0 0 0 0 0 0 0 0
0 0 0 0 0 0 0 0 0 0 0 0 0 0 0 0 0 0 0 0 0 0 0 0 0 0 0 0 0 0 0 0 0 0 0 0 0 0 0 0 0 0 0 0 0 0 0 0 0
0 0 0 0 0 0 0 0 0 0 0 0 0 0 0 0 0 0 0 0 0 0 0 0 0 0 0 0 0 0 0 0 0 0 0 0 0 0 0 0 0 0 0 0 0 0 0 0 0
0 0 0 0 0 0 0 0 0 0 0 0 0 0 0 0 0 0 0 0 0 0 0 0 0 0 0 0 0 0 0 0 0 0 0 0 0 0 0 0 0 0 0 0 0 0 0 0 0
0 0 0 0 0 0 0 0 0 0 0 0 0 0 0 0 0 0 0 0 0 0 0 0 0 0 0 0 0 0 0 0 0 0 0 0 0 0 0 0 0 0 0 0 0 0 0 0 0
Wind_Speed
12 8 3 5 7 6 2 2 2 2 3 2 5 9 8 4 2 4 2 9 12 9 7 8 10 12 13 13 13 14 15 16 16 16 17 17 17 17 17 17 17 17 17 18 18 18 18 18 18
6 5 6 6 6 3 2 2 3 2 3 3 6 7 6 4 3 6 5 9 12 10 7 8 10 12 13 13 13 14 15 15 16 16 16 17 17 17 17 16 16 17 17 17 17 17 17 17 17
6 3 5 5 3 3 2 3 4 2 2 4 5 5 5 4 3 5 7 12 11 8 7 8 11 12 13 13 13 14 14 15 15 16 16 17 17 17 16 16 16 16 16 16 16 16 16 16 16
4 5 5 5 1 2 5 6 5 4 2 4 6 5 2 1 3 6 12 12 11 8 7 8 11 12 13 13 14 14 14 15 15 15 16 16 16 16 16 16 16 15 16 16 15 15 15 15 16
4 5 5 2 1 2 3 5 6 5 4 3 5 5 1 4 5 13 13 12 12 8 6 8 11 11 12 13 14 14 14 15 15 15 16 16 16 16 15 15 15 15 15 15 14 14 14 14 15
5 5 4 1 3 2 2 3 5 4 3 3 6 6 2 0 7 10 12 11 11 10 7 7 10 11 11 11 12 13 14 14 15 15 15 15 15 15 15 14 14 14 14 13 13 13 13 13 13
4 4 3 3 2 2 3 2 6 5 4 4 8 7 3 3 5 8 10 11 10 9 7 6 6 8 10 11 11 12 12 13 13 14 14 13 13 14 13 13 13 13 13 12 12 11 11 11 12
4 4 2 3 3 4 2 2 3 6 4 3 6 10 8 7 6 8 10 9 9 8 7 6 6 6 6 7 11 11 11 12 12 13 12 12 11 11 11 10 11 12 12 11 10 9 9 9 9
3 4 3 5 5 4 2 2 1 2 5 3 3 5 7 11 10 10 9 7 8 8 7 7 7 6 6 6 9 10 10 11 11 10 12 9 6 6 6 8 10 11 11 10 9 7 6 6 6
4 4 7 4 4 4 2 3 4 3 3 2 3 3 7 11 11 12 12 13 12 11 9 8 8 8 7 6 6 5 5 6 6 5 6 5 4 4 5 8 9 8 8 7 7 4 3 3 2
5 6 5 4 2 2 2 3 3 7 4 6 7 8 11 9 10 11 11 12 12 11 10 9 9 9 7 6 5 3 3 4 5 6 5 5 4 4 3 3 3 4 4 2 2 1 1 0 1
4 5 4 3 1 1 3 3 3 5 6 6 10 16 14 14 15 15 13 11 10 10 11 11 11 10 9 7 6 5 4 4 4 5 6 5 4 4 4 3 3 2 2 2 1 1 1 1 2
5 4 4 3 1 1 2 2 3 4 4 2 9 14 15 16 14 11 9 9 9 11 12 12 12 12 10 8 6 6 6 5 5 5 6 6 5 5 4 3 3 3 2 3 2 2 2 2 2
6 5 3 3 3 2 2 3 2 6 3 5 11 15 15 16 15 11 11 11 12 13 12 12 13 13 12 9 7 7 6 6 5 5 7 8 6 5 5 4 4 4 3 3 3 3 3 2 2
3 3 4 4 4 3 2 6 8 7 3 6 10 12 14 14 13 15 16 15 14 13 12 12 13 12 13 11 10 8 7 6 6 6 7 8 7 7 6 5 4 4 4 4 3 3 2 2 2
5 4 5 5 6 5 6 12 10 6 6 9 9 10 12 14 16 16 15 14 12 12 13 13 11 12 12 11 10 7 7 7 7 6 7 8 8 8 7 5 5 5 4 4 3 3 2 2 2
6 7 7 4 6 6 8 11 8 6 8 10 10 11 12 13 14 15 15 15 14 15 14 14 13 13 12 11 9 8 8 8 7 7 6 8 9 9 7 6 5 5 4 4 4 3 3 3 2
9 7 7 9 6 7 9 11 9 5 7 10 10 10 11 14 17 16 16 16 15 14 14 15 14 13 11 9 7 6 7 7 7 8 8 9 8 9 8 6 7 6 5 4 4 4 3 3 3
9 9 9 8 6 8 11 15 14 9 8 9 9 9 11 15 15 13 15 15 14 14 15 16 16 14 12 9 9 9 9 8 8 8 10 11 10 11 9 7 7 7 7 7 6 4 4 3 3
8 10 8 4 4 6 8 15 14 10 11 12 12 12 13 12 10 11 13 14 16 18 18 18 18 16 14 12 10 7 6 6 7 7 9 11 12 12 10 10 9 9 7 8 7 5 4 4 4
11 11 9 5 1 2 2 9 12 10 10 11 12 13 12 15 15 13 14 16 17 18 19 18 19 18 16 13 7 5 4 3 6 8 10 12 13 12 12 12 10 10 9 9 10 8 8 6 5
16 9 8 5 3 4 5 7 9 8 10 14 15 15 16 16 15 13 14 15 17 20 18 18 18 18 16 15 12 12 12 13 13 9 10 10 12 13 13 12 12 11 10 10 10 10 8 7 6
6 8 8 7 5 4 5 6 10 5 9 12 14 17 18 17 15 15 15 17 18 18 16 17 16 17 17 17 17 16 15 13 7 7 9 11 11 13 14 14 13 12 11 11 11 11 10 8 7
7 6 3 2 3 11 11 8 11 8 11 8 11 14 15 15 14 14 13 13 14 14 14 14 16 17 17 18 18 19 19 15 10 11 12 11 10 11 14 14 14 13 12 13 13 12 13 11 10
10 9 6 8 10 11 8 10 14 9 11 12 13 13 13 12 11 12 11 12 12 13 14 15 16 18 18 19 20 20 20 18 17 15 14 12 10 11 15 15 14 13 14 13 12 12 12 13 12
18 15 11 10 8 4 5 13 11 9 11 10 11 10 9 9 9 10 10 10 11 12 13 14 16 18 17 18 20 19 18 15 14 15 13 13 12 12 12 14 15 15 14 13 12 12 13 11 13
17 16 6 4 2 3 8 9 11 7 9 10 10 9 10 9 8 8 7 7 8 9 11 13 15 15 15 17 17 17 17 17 15 14 13 11 10 9 11 13 15 15 15 14 14 12 14 12 13
10 11 7 8 9 7 7 8 9 7 11 10 10 11 11 7 6 5 5 5 5 6 7 8 11 14 14 14 14 13 15 15 14 12 13 13 12 11 11 13 15 15 15 14 14 13 12 13 13
13 15 10 8 6 8 7 11 10 13 14 14 15 12 10 8 7 6 5 5 4 4 4 5 7 8 9 10 11 11 12 13 13 13 14 14 12 12 13 14 14 15 15 15 14 15 13 15 15
10 13 14 13 9 7 6 12 5 10 11 12 12 10 8 7 6 5 4 3 3 4 4 4 5 6 7 7 7 9 10 10 11 13 14 13 13 13 13 13 14 15 15 15 16 17 16 16 16
Wind_Direction
328 329 24 48 50 49 40 329 144 95 73 60 75 85 92 80 98 139 121 133 129 131 129 123 123 121 119 117 115 114 112 111 109 106 105 103 102 100 98 96 94 94 93 93 94 93 89 86 86
328 345 39 54 75 62 330 301 103 101 148 124 83 85 78 69 78 110 122 139 132 131 129 126 124 124 123 121 118 116 115 114 112 110 109 107 105 103 101 99 97 97 97 97 97 95 90 85 86
336 34 66 65 89 155 176 218 146 131 92 92 75 63 95 123 124 134 148 140 128 125 124 130 128 129 128 126 123 119 119 118 116 114 111 110 108 106 103 102 100 99 99 100 100 97 91 86 88
26 33 52 70 83 219 179 195 167 127 71 76 100 75 53 2 166 137 139 136 126 124 127 136 133 134 133 131 127 124 123 121 119 116 114 112 111 108 106 105 103 101 101 102 102 100 93 87 89
52 64 57 40 265 247 190 187 164 135 140 107 104 104 63 331 116 128 138 135 131 129 132 138 135 136 136 134 131 128 126 125 122 119 116 115 115 113 111 109 106 104 103 104 105 102 95 89 88
49 64 90 214 256 257 222 190 139 130 147 125 110 117 153 277 126 136 138 136 136 137 135 135 136 136 136 135 133 131 128 127 126 124 122 121 119 117 115 113 111 110 108 108 107 104 98 91 89
99 104 165 199 237 263 230 175 137 139 148 160 130 121 160 214 161 138 135 135 135 137 134 132 136 138 136 132 131 130 129 129 128 126 123 119 119 119 117 117 117 116 113 111 110 106 99 90 87
124 115 173 199 203 243 230 143 142 140 158 135 122 145 180 200 167 132 130 135 137 140 143 142 138 134 132 130 131 130 128 128 126 122 117 115 115 116 116 119 122 121 119 117 114 107 95 82 79
92 97 200 209 194 229 212 140 123 125 112 69 62 168 186 154 146 133 134 139 148 154 156 152 146 142 137 136 137 132 129 129 127 125 124 117 111 110 112 122 125 127 127 125 120 109 85 58 52
104 172 216 220 197 202 199 170 166 117 108 93 43 37 122 143 155 157 161 165 167 170 171 165 158 154 149 145 138 134 134 136 134 137 133 126 124 122 120 121 127 130 133 133 129 112 63 39 30
165 198 223 250 233 184 172 179 167 138 179 194 181 168 152 161 170 175 175 175 175 173 175 174 167 163 159 150 154 149 145 148 148 152 147 138 129 125 119 118 121 128 133 123 125 89 42 78 97
192 227 219 240 253 174 177 174 176 178 205 205 182 165 165 175 184 187 184 180 175 176 181 179 173 169 167 161 165 162 162 165 165 169 159 149 147 149 152 153 159 161 160 169 176 188 191 163 138
212 235 223 228 230 193 169 198 210 230 234 167 142 160 178 186 193 196 190 182 181 184 184 182 177 175 173 169 173 174 176 178 177 173 171 165 162 167 169 172 178 187 185 184 186 191 183 170 151
211 225 243 231 222 213 194 248 222 240 210 143 156 178 191 194 194 191 194 196 194 192 188 182 181 179 176 177 179 179 182 181 179 180 181 176 171 172 176 182 188 196 194 188 185 187 186 185 165
171 206 261 244 208 205 165 263 233 229 190 185 189 195 199 204 198 200 200 201 199 195 190 186 184 181 180 181 183 181 184 182 185 187 186 183 178 178 179 183 192 199 193 185 183 190 181 182 179
155 181 223 238 195 191 168 247 247 227 205 220 216 210 209 212 208 209 205 204 200 194 192 191 187 185 185 183 183 182 183 184 189 188 187 188 184 181 180 184 194 193 184 179 180 182 180 191 187
176 197 204 233 205 180 187 241 253 227 207 227 225 218 216 219 219 215 209 206 201 198 195 193 191 189 188 185 183 183 183 188 189 189 190 192 190 185 184 189 193 186 182 186 186 185 177 184 189
183 179 187 206 216 187 208 241 253 247 214 228 232 226 222 222 222 215 210 207 203 199 196 196 195 193 188 183 180 182 188 193 191 193 195 193 194 190 188 191 193 185 183 191 190 188 184 183 177
167 177 197 209 207 191 221 240 246 241 241 242 240 234 230 230 229 217 210 206 201 198 196 197 197 195 188 188 191 193 198 197 198 199 197 197 196 193 192 194 193 191 194 197 190 180 184 194 158
186 194 203 232 222 203 235 249 252 234 231 233 234 235 234 236 233 220 210 203 202 201 200 199 200 197 196 199 198 197 193 197 202 200 202 202 199 197 197 197 198 197 198 198 194 183 178 192 177
210 200 193 201 234 231 258 276 255 245 229 235 235 234 233 230 227 219 211 206 204 205 203 202 202 201 200 195 183 176 179 188 199 206 208 207 204 202 201 202 200 200 200 204 203 195 187 196 202
218 197 183 185 173 233 199 263 264 238 236 233 235 236 235 233 228 220 212 208 207 208 206 205 203 202 199 193 191 191 200 208 210 206 207 205 205 206 206 205 204 204 205 207 206 203 199 189 199
194 168 183 194 196 240 224 241 269 246 241 239 236 236 237 234 227 223 216 211 210 208 205 205 203 203 200 198 200 202 212 217 210 200 204 208 208 209 209 208 207 209 210 211 207 205 205 204 201
138 126 124 150 185 238 216 214 262 218 217 227 236 237 236 233 228 226 221 214 212 208 205 203 202 205 201 201 204 207 213 214 207 207 211 212 212 213 213 211 211 212 213 213 212 210 210 212 211
168 157 180 199 213 236 176 209 249 217 217 214 225 236 238 231 225 224 219 213 212 208 206 205 204 208 204 203 207 211 214 214 215 214 215 213 214 216 216 212 214 215 216 216 213 213 215 214 213
191 183 188 197 206 231 181 227 249 228 232 235 237 240 242 234 225 222 219 214 214 212 208 206 207 211 207 206 210 213 215 216 220 219 218 217 219 220 215 213 218 219 217 217 216 218 221 219 220
182 200 188 144 127 195 230 259 290 248 250 247 244 240 237 230 220 220 218 213 214 214 210 208 209 213 212 211 212 214 215 217 221 219 218 220 221 218 213 213 218 220 219 219 217 222 223 222 224
177 163 159 179 176 220 248 239 236 216 221 231 230 227 229 226 219 218 216 214 216 215 215 211 211 215 215 214 214 216 217 219 222 220 220 220 220 216 215 216 219 221 221 220 221 225 225 224 226
167 178 180 178 191 192 235 249 216 199 202 209 217 217 217 218 216 215 215 217 213 209 207 209 215 219 220 218 217 218 220 219 219 222 223 223 221 217 218 218 218 220 221 220 222 226 224 226 229
181 185 178 189 199 200 220 260 227 210 212 209 213 215 215 212 211 213 209 207 209 216 216 214 216 220 223 220 219 222 223 220 221 225 226 223 223 220 219 219 220 221 221 219 221 225 224 226 228